Wind_Speed
22 20 29 37 27 27 24 35 31 27 22 32 33 35 36 17 15 18 10 12 16 14 12 13 13 16 19 19 20 21 22 23 23 23 23 25 27 26 26 27 26 27 29 29
22 28 22 28 28 24 12 28 28 32 34 29 31 37 33 36 20 17 15 13 17 17 17 19 20 21 21 22 23 25 26 27 27 26 27 27 26 27 28 29 29 30 31 32
24 2 10 21 26 24 26 20 26 21 18 22 25 34 35 35 26 25 23 21 19 21 21 21 21 21 22 23 24 25 25 25 26 27 28 28 30 31 33 33 34 33 33 34
23 31 12 8 19 21 27 23 19 20 17 9 19 4 26 42 37 32 26 22 26 24 23 22 22 23 23 23 23 25 26 26 28 30 30 32 32 33 35 34 35 35 36 37
17 21 25 19 10 15 8 25 18 15 16 12 16 8 9 23 44 35 30 30 31 32 31 25 25 27 27 26 25 26 27 28 29 31 33 34 35 35 35 35 36 38 38 40
13 11 15 6 11 9 15 17 18 15 11 5 12 14 6 12 23 30 29 29 31 33 33 32 28 25 27 28 29 29 30 31 31 32 33 35 36 38 38 39 38 37 33 33
20 10 15 15 9 8 13 11 4 3 2 3 7 12 12 12 16 20 20 22 26 31 31 31 34 35 33 29 29 31 32 35 30 35 39 39 40 40 41 42 37 33 30 30
14 8 16 17 17 16 16 14 5 2 2 3 11 9 7 21 18 20 26 26 29 31 31 35 35 34 36 41 42 44 35 29 44 40 48 37 30 37 31 32 27 25 20 14
14 12 15 18 21 15 16 17 14 4 2 3 7 7 9 14 18 25 30 28 27 28 31 29 27 28 29 31 36 37 40 44 37 24 21 28 19 20 23 17 12 13 13 13
8 9 17 19 23 19 14 20 11 8 4 3 8 4 10 13 24 26 27 31 29 25 22 22 22 21 19 21 22 23 23 20 18 19 19 8 9 10 9 10 13 14 15 16
2 6 14 19 16 21 16 17 14 11 5 2 3 3 10 11 17 17 23 21 24 24 21 19 18 18 18 18 20 19 18 18 18 12 5 2 5 9 12 14 18 18 17 19
8 6 11 18 17 19 27 16 19 7 4 7 4 3 4 3 4 11 14 15 15 17 17 16 16 17 16 15 15 15 17 16 7 6 4 4 9 12 15 16 18 19 21 23
19 5 6 4 7 23 23 25 20 17 10 8 4 3 3 6 7 5 7 10 14 15 16 16 16 15 12 12 12 6 6 7 4 1 4 8 13 16 18 19 20 22 24 26
11 10 6 2 2 9 22 28 26 23 15 8 17 5 5 4 5 8 10 11 15 16 16 17 18 13 11 8 8 10 7 5 4 5 7 11 16 19 21 22 23 25 26 28
15 14 13 7 2 2 8 21 28 31 37 20 16 19 21 21 22 22 16 14 18 20 20 18 14 12 11 12 13 12 10 8 7 9 12 16 21 23 24 25 25 27 29 31
16 7 21 15 6 4 4 8 21 21 30 35 22 23 18 14 12 16 13 13 15 18 19 17 13 13 16 17 15 13 11 9 10 13 17 22 25 26 27 27 29 31 32 34
12 4 16 9 13 7 10 17 15 17 16 21 27 15 20 25 19 17 12 13 15 18 19 16 15 15 17 17 15 13 12 11 14 18 22 26 27 27 28 30 32 32 34 36
7 9 9 6 10 2 6 7 11 18 17 19 18 17 16 14 16 20 19 16 17 21 25 19 18 15 18 19 16 15 14 15 18 22 26 28 29 29 30 32 32 34 36 38
18 14 5 5 10 8 10 14 13 13 14 18 23 22 21 20 20 24 20 16 19 23 27 21 21 17 20 19 18 17 17 20 24 26 29 30 30 32 33 33 34 37 39 40
16 15 12 10 3 5 3 9 8 14 21 15 12 14 22 23 24 17 18 21 19 19 21 22 24 21 20 20 19 20 22 25 28 29 31 32 33 33 33 34 37 39 41 40
24 16 17 13 6 8 13 8 7 11 5 7 8 10 20 19 20 19 17 17 16 15 18 21 25 21 21 20 22 23 27 29 30 32 33 34 34 34 35 37 40 42 42 41
18 15 18 17 10 13 11 13 18 12 11 12 12 12 14 13 16 20 19 17 17 19 21 23 23 21 21 23 23 28 29 30 31 33 35 34 34 35 37 40 42 41 40 40
14 15 15 18 15 10 7 8 12 15 17 18 18 17 15 12 14 17 16 14 13 14 17 20 20 20 22 25 28 29 29 31 33 34 33 34 35 37 40 42 41 40 40 39
15 18 27 24 25 25 24 22 17 10 10 15 15 15 12 11 11 12 11 10 12 14 14 15 19 22 25 27 28 29 30 32 33 33 34 35 37 40 40 39 39 39 39 39
15 17 22 27 29 24 22 23 21 16 14 11 10 10 10 10 11 12 11 10 10 13 16 18 21 22 24 25 27 29 31 32 33 34 35 37 38 38 38 39 39 39 40 40
12 20 24 24 17 15 15 19 18 14 13 13 12 9 11 11 13 14 14 16 17 17 17 17 18 21 23 25 27 27 30 32 34 34 35 36 36 38 39 39 40 40 39 40
Wind_Direction
229 225 217 212 214 215 209 202 217 224 221 227 225 234 216 209 225 213 185 230 237 234 231 238 230 234 231 234 238 239 239 241 244 246 248 250 256 260 261 265 268 272 276 278
238 230 196 203 200 201 208 203 215 232 236 235 219 220 223 221 229 242 223 233 247 231 223 225 223 228 227 233 232 235 238 240 244 250 253 255 259 262 264 266 269 272 275 277
222 219 229 204 196 205 207 191 198 197 197 223 228 231 218 223 223 221 225 210 232 237 231 233 239 242 246 250 253 257 256 256 257 257 257 257 260 263 265 267 269 270 271 273
243 260 289 174 187 199 198 205 214 220 220 221 221 253 241 220 226 230 237 219 225 226 238 236 243 245 247 253 255 257 257 258 260 261 260 260 261 264 267 267 270 270 269 268
221 233 241 231 179 189 147 196 191 159 163 168 194 218 229 226 221 231 239 225 226 237 238 235 237 243 249 251 252 253 256 258 259 261 263 261 262 260 261 263 263 262 266 265
199 217 236 255 241 192 167 156 166 157 156 195 202 205 200 201 203 222 230 233 244 244 245 246 245 244 246 250 253 256 259 260 258 256 255 257 257 258 258 258 257 254 249 250
202 191 203 207 228 236 214 145 93 122 148 188 171 194 211 199 214 222 237 240 242 243 239 252 250 245 246 253 258 254 258 256 261 253 250 251 252 251 255 256 251 247 243 248
203 201 220 192 200 217 199 213 117 171 169 147 166 211 230 208 203 207 229 237 238 241 241 240 242 248 251 248 253 265 269 269 279 264 267 256 258 258 250 254 269 285 293 312
188 195 195 204 204 204 198 196 199 157 71 137 204 221 204 216 223 221 232 236 240 242 242 242 246 249 254 255 258 264 265 260 260 246 254 282 278 287 284 290 333 355 339 324
181 174 196 188 198 201 204 192 172 172 145 213 196 214 233 227 231 231 234 235 235 241 243 240 240 242 249 258 261 256 263 262 271 285 287 294 352 2 345 330 330 329 314 301
191 159 185 189 192 197 185 182 199 190 201 205 135 218 218 248 246 244 239 240 238 239 243 240 238 239 243 252 259 263 278 285 288 279 253 315 313 342 336 307 293 296 302 304
217 103 147 199 200 188 202 202 199 182 201 211 136 221 174 344 332 241 245 245 242 236 238 234 236 234 239 256 278 284 290 282 277 55 38 344 327 303 295 298 302 307 308 308
225 149 120 178 209 215 209 202 208 211 238 225 173 229 284 280 264 254 272 253 236 232 229 227 235 239 254 274 275 254 156 121 121 250 299 313 305 303 307 308 309 311 310 310
221 192 168 107 115 211 216 224 224 220 225 222 213 196 218 250 266 285 302 272 245 232 229 230 235 248 259 244 180 166 163 182 226 274 294 306 315 314 312 312 310 310 309 309
208 216 207 247 290 162 219 226 220 224 222 225 240 244 247 253 264 266 265 250 244 233 232 234 244 245 228 194 190 188 202 226 256 296 313 320 318 315 313 310 308 308 310 313
204 231 219 229 224 206 204 227 214 232 232 228 226 248 250 239 255 268 251 258 248 230 219 221 226 226 197 196 200 212 228 255 286 308 314 316 316 314 310 309 309 313 315 316
211 203 192 201 214 235 257 228 221 226 231 232 239 259 236 245 253 257 267 260 250 229 223 230 217 211 209 213 220 234 253 276 296 306 309 312 313 309 307 309 312 315 314 315
216 201 172 175 191 266 246 240 238 244 244 242 242 243 243 251 239 234 236 226 223 225 225 225 221 231 226 225 235 247 265 281 295 301 305 309 307 305 308 311 313 311 313 315
229 212 200 143 208 287 232 236 235 239 253 253 254 249 253 255 245 237 237 242 235 227 230 227 228 244 231 233 246 262 276 288 295 300 304 305 305 308 309 309 309 312 315 315
213 213 189 190 211 216 232 242 244 249 260 264 266 257 251 250 250 252 252 252 254 249 238 223 229 242 238 242 257 270 282 289 296 300 302 304 306 306 307 310 312 314 315 315
210 222 205 216 242 260 238 241 250 230 245 251 255 251 260 259 256 254 254 254 244 242 238 220 226 240 241 249 263 277 283 288 293 298 300 302 304 308 309 310 312 315 315 315
201 199 213 217 227 255 244 238 240 252 260 256 269 273 281 284 245 247 248 250 250 237 233 224 232 245 244 257 270 276 282 289 294 297 299 302 306 308 309 311 312 313 313 313
208 202 202 214 231 226 231 239 271 257 253 259 271 276 271 278 246 239 238 243 241 227 224 228 235 243 253 262 271 280 286 292 295 297 299 303 306 308 309 311 313 312 313 314
230 224 229 233 239 246 251 256 265 268 260 258 263 251 262 264 227 212 223 239 232 224 217 224 240 249 257 267 277 283 289 293 296 298 301 304 306 307 310 312 314 315 315 315
250 237 240 245 242 244 245 252 254 254 257 271 251 248 240 242 219 204 207 220 223 219 223 233 245 257 268 275 281 287 292 294 296 299 301 303 306 310 313 316 317 316 315 313
255 247 242 250 261 251 247 243 240 241 242 235 228 219 215 214 212 214 222 228 231 234 237 247 258 266 272 281 289 292 294 296 298 299 301 305 310 315 318 318 317 316 313 311
Height
3078 3082 3082 3087 3091 3096 3101 3107 3112 3117 3124 3128 3132 3135 3142 3146 3148 3152 3154 3154 3154 3158 3160 3163 3164 3166 3167 3169 3170 3172 3173 3175 3176 3177 3178 3178 3178 3179 3179 3179 3179 3179 3178 3177
3075 3077 3079 3084 3088 3093 3095 3100 3108 3113 3118 3125 3127 3129 3135 3141 3144 3148 3150 3151 3151 3153 3156 3159 3159 3161 3163 3164 3165 3168 3168 3170 3171 3173 3173 3174 3175 3175 3175 3175 3175 3174 3173 3172
3071 3074 3076 3078 3083 3088 3094 3098 3102 3110 3114 3119 3121 3122 3126 3133 3138 3141 3144 3147 3147 3148 3151 3154 3156 3159 3160 3162 3163 3165 3167 3169 3169 3170 3171 3170 3170 3171 3170 3170 3169 3168 3167 3165
3070 3069 3072 3075 3078 3085 3089 3094 3101 3105 3110 3114 3116 3117 3117 3124 3130 3134 3139 3143 3141 3142 3149 3153 3153 3155 3157 3158 3161 3162 3164 3165 3166 3165 3166 3165 3164 3164 3163 3164 3163 3162 3160 3159
3070 3071 3076 3074 3077 3083 3085 3091 3096 3100 3104 3109 3111 3117 3113 3115 3122 3127 3134 3134 3135 3138 3143 3148 3149 3150 3153 3154 3156 3157 3159 3159 3160 3161 3160 3160 3158 3158 3156 3156 3155 3153 3152 3152
3071 3071 3075 3078 3077 3081 3085 3088 3093 3098 3103 3108 3109 3113 3114 3115 3118 3120 3126 3129 3130 3134 3139 3142 3144 3145 3147 3149 3151 3152 3153 3154 3153 3155 3154 3153 3151 3151 3148 3147 3146 3144 3142 3140
3068 3071 3073 3076 3080 3083 3085 3088 3092 3099 3102 3105 3106 3111 3110 3112 3113 3118 3121 3125 3128 3130 3132 3134 3137 3139 3142 3143 3146 3146 3146 3145 3144 3144 3143 3142 3142 3141 3140 3139 3137 3135 3131 3130
3064 3070 3068 3071 3078 3084 3084 3089 3094 3099 3101 3102 3106 3106 3106 3108 3109 3112 3117 3121 3122 3123 3125 3128 3129 3131 3134 3135 3139 3139 3140 3136 3138 3137 3137 3134 3133 3133 3131 3132 3133 3135 3133 3130
3063 3066 3065 3069 3074 3083 3084 3087 3094 3097 3099 3101 3102 3102 3105 3103 3105 3107 3111 3114 3115 3118 3120 3121 3124 3127 3129 3131 3132 3131 3131 3131 3131 3131 3132 3133 3134 3134 3133 3132 3131 3130 3128 3128
3061 3064 3067 3069 3075 3081 3081 3086 3093 3094 3102 3103 3098 3099 3097 3097 3098 3101 3104 3107 3110 3113 3115 3117 3120 3123 3125 3127 3128 3128 3128 3128 3129 3131 3131 3131 3131 3132 3131 3129 3128 3127 3126 3124
3058 3061 3067 3068 3073 3076 3080 3081 3086 3090 3093 3094 3095 3096 3095 3094 3095 3098 3102 3103 3107 3109 3112 3113 3116 3118 3121 3123 3125 3126 3125 3126 3126 3126 3127 3129 3130 3129 3128 3127 3127 3125 3122 3119
3058 3058 3062 3067 3071 3073 3075 3080 3084 3086 3090 3093 3091 3095 3094 3093 3096 3097 3099 3101 3102 3105 3108 3110 3113 3115 3117 3119 3122 3122 3122 3123 3123 3124 3126 3127 3127 3126 3125 3124 3122 3119 3117 3115
3058 3061 3064 3067 3070 3069 3072 3076 3080 3084 3086 3089 3090 3094 3094 3093 3094 3095 3097 3098 3099 3100 3104 3107 3110 3112 3114 3116 3117 3117 3119 3121 3122 3124 3124 3125 3125 3124 3122 3119 3117 3113 3111 3108
3059 3060 3063 3064 3064 3065 3068 3072 3078 3081 3083 3086 3088 3092 3093 3094 3093 3095 3096 3096 3095 3097 3100 3104 3107 3109 3111 3112 3113 3115 3117 3119 3120 3121 3121 3120 3119 3118 3116 3113 3111 3109 3106 3103
3058 3059 3062 3063 3065 3065 3065 3068 3072 3074 3081 3087 3091 3089 3090 3090 3091 3093 3093 3091 3092 3094 3098 3102 3104 3107 3108 3109 3111 3113 3114 3116 3117 3118 3116 3115 3113 3113 3110 3108 3106 3104 3099 3096
3056 3057 3059 3062 3064 3064 3065 3065 3068 3072 3075 3078 3081 3081 3084 3085 3085 3085 3087 3088 3089 3092 3096 3098 3101 3103 3104 3107 3109 3111 3111 3113 3114 3112 3112 3111 3107 3107 3105 3103 3100 3096 3091 3089
3055 3056 3058 3061 3064 3065 3065 3063 3066 3068 3070 3073 3075 3075 3077 3079 3080 3081 3084 3086 3087 3090 3092 3094 3098 3100 3102 3105 3106 3108 3109 3109 3111 3109 3109 3106 3102 3101 3099 3095 3092 3089 3086 3082
3053 3056 3057 3059 3062 3065 3061 3061 3062 3064 3066 3068 3071 3071 3073 3074 3075 3075 3077 3080 3082 3085 3088 3091 3093 3096 3099 3101 3103 3105 3106 3106 3106 3105 3102 3099 3096 3095 3092 3088 3084 3081 3077 3072
3053 3054 3056 3058 3060 3059 3057 3058 3060 3060 3062 3063 3065 3068 3070 3071 3071 3071 3074 3078 3079 3080 3083 3089 3092 3094 3096 3098 3100 3101 3102 3102 3101 3098 3095 3093 3091 3088 3085 3081 3076 3073 3068 3064
3050 3054 3056 3058 3059 3059 3056 3057 3058 3059 3058 3060 3063 3064 3064 3067 3066 3070 3072 3073 3076 3078 3081 3085 3088 3091 3093 3095 3097 3097 3098 3097 3094 3092 3090 3087 3083 3080 3076 3073 3070 3062 3061 3056
3047 3049 3053 3055 3056 3053 3053 3055 3056 3058 3061 3058 3059 3060 3059 3062 3064 3065 3067 3069 3072 3074 3078 3081 3084 3087 3090 3091 3092 3092 3091 3090 3088 3086 3084 3080 3076 3071 3069 3065 3060 3054 3050 3046
3043 3046 3047 3053 3055 3052 3050 3052 3055 3056 3055 3056 3057 3057 3056 3057 3058 3059 3062 3065 3067 3070 3073 3076 3080 3084 3086 3086 3086 3087 3086 3083 3081 3079 3077 3073 3068 3064 3060 3056 3051 3047 3042 3038
3042 3042 3043 3046 3044 3046 3048 3050 3051 3052 3052 3054 3054 3054 3054 3054 3055 3056 3060 3062 3064 3067 3070 3074 3078 3080 3081 3081 3081 3081 3079 3077 3075 3072 3068 3064 3060 3056 3052 3048 3043 3038 3034 3029
3037 3039 3039 3041 3041 3042 3044 3046 3048 3048 3048 3049 3050 3050 3050 3050 3051 3054 3057 3060 3062 3064 3068 3071 3073 3075 3075 3076 3076 3075 3073 3070 3067 3063 3060 3056 3052 3048 3044 3039 3034 3029 3024 3019
3034 3034 3033 3033 3034 3037 3039 3041 3043 3044 3045 3045 3046 3046 3048 3048 3050 3052 3055 3058 3061 3063 3065 3067 3069 3070 3071 3070 3069 3067 3065 3062 3059 3056 3052 3048 3044 3039 3035 3030 3025 3020 3014 3010
3024 3025 3026 3026 3030 3032 3034 3036 3037 3039 3041 3042 3042 3043 3045 3046 3049 3051 3053 3056 3058 3060 3061 3063 3064 3065 3065 3064 3063 3060 3058 3055 3051 3047 3044 3039 3035 3030 3025 3021 3016 3011 3006 3001